| time (UTC) | temp F | wind direction | speed knots | gust knots | rain 1hr in | rain 24hr in | rain mn in | humidity % | barometer mb |
| 20260508102105 | 61 | 202 | 13.0 | 19.1 | 0.00 | 0.00 | 0.00 | 63 | 1009.6 |
| 20260508101605 | 62 | 210 | 11.3 | 18.2 | 0.00 | 0.00 | 0.00 | 62 | 1009.6 |
| 20260508100605 | 60 | 222 | 11.3 | 17.4 | 0.00 | 0.00 | 0.00 | 66 | 1010.0 |
| 20260508100106 | 60 | 196 | 11.3 | 20.0 | 0.00 | 0.00 | 0.00 | 66 | 1009.9 |
| 20260508095104 | 60 | 204 | 12.2 | 20.0 | 0.00 | 0.00 | 0.00 | 64 | 1009.9 |
| 20260508093606 | 60 | 198 | 11.3 | 19.1 | 0.00 | 0.00 | 0.00 | 63 | 1009.8 |
| 20260508093105 | 60 | 214 | 9.6 | 19.1 | 0.00 | 0.00 | 0.00 | 64 | 1009.7 |
| 20260508092605 | 60 | 203 | 11.3 | 17.4 | 0.00 | 0.00 | 0.00 | 64 | 1009.8 |
| 20260508092105 | 60 | 192 | 11.3 | 18.2 | 0.00 | 0.00 | 0.00 | 64 | 1009.9 |
| 20260508085605 | 59 | 194 | 12.2 | 20.9 | 0.00 | 0.00 | 0.00 | 67 | 1009.8 |
| 20260508085105 | 59 | 192 | 11.3 | 19.1 | 0.00 | 0.00 | 0.00 | 66 | 1009.8 |
| 20260508084605 | 59 | 199 | 9.6 | 20.0 | 0.00 | 0.00 | 0.00 | 66 | 1009.6 |
| 20260508084105 | 58 | 192 | 10.4 | 18.2 | 0.00 | 0.00 | 0.00 | 68 | 1009.8 |
| 20260508083604 | 58 | 188 | 12.2 | 21.7 | 0.00 | 0.00 | 0.00 | 69 | 1009.9 |
| 20260508083104 | 57 | 200 | 11.3 | 20.0 | 0.00 | 0.00 | 0.00 | 70 | 1010.1 |
| 20260508082605 | 58 | 190 | 11.3 | 18.2 | 0.00 | 0.00 | 0.00 | 68 | 1009.8 |
| 20260508082105 | 58 | 199 | 8.7 | 18.2 | 0.00 | 0.00 | 0.00 | 69 | 1009.9 |
| 20260508081605 | 57 | 217 | 7.8 | 17.4 | 0.00 | 0.00 | 0.00 | 69 | 1009.9 |
| 20260508080605 | 58 | 201 | 7.0 | 18.2 | 0.00 | 0.00 | 0.00 | 69 | 1009.6 |
| 20260508080106 | 57 | 189 | 10.4 | 18.2 | 0.00 | 0.00 | 0.00 | 69 | 1009.6 |
| 20260508075605 | 57 | 189 | 13.0 | 20.9 | 0.00 | 0.00 | 0.00 | 70 | 1009.6 |
| 20260508075105 | 57 | 192 | 9.6 | 18.2 | 0.00 | 0.00 | 0.00 | 70 | 1009.4 |
| 20260508074605 | 57 | 195 | 7.8 | 18.2 | 0.00 | 0.00 | 0.00 | 71 | 1009.5 |
| 20260508074105 | 57 | 179 | 9.6 | 15.6 | 0.00 | 0.00 | 0.00 | 70 | 1009.2 |
| 20260508073605 | 56 | 197 | 9.6 | 20.0 | 0.00 | 0.00 | 0.00 | 71 | 1009.7 |
| 20260508073105 | 56 | 188 | 7.8 | 19.1 | 0.00 | 0.00 | 0.00 | 71 | 1009.6 |
| 20260508072605 | 56 | 185 | 8.7 | 15.6 | 0.00 | 0.00 | 0.00 | 71 | 1009.6 |
| 20260508072104 | 55 | 200 | 8.7 | 18.2 | 0.00 | 0.00 | 0.00 | 71 | 1009.5 |
| 20260508071605 | 55 | 183 | 9.6 | 20.0 | 0.00 | 0.00 | 0.00 | 72 | 1009.8 |
| 20260508070604 | 55 | 168 | 8.7 | 15.6 | 0.00 | 0.00 | 0.00 | 73 | 1010.1 |
| 20260508070105 | 55 | 178 | 8.7 | 21.7 | 0.00 | 0.00 | 0.00 | 72 | 1009.9 |
| 20260508065605 | 54 | 168 | 9.6 | 17.4 | 0.00 | 0.00 | 0.00 | 72 | 1010.1 |
| 20260508065105 | 55 | 193 | 6.1 | 14.8 | 0.00 | 0.00 | 0.00 | 70 | 1010.1 |
| 20260508064604 | 55 | 201 | 7.0 | 13.9 | 0.00 | 0.00 | 0.00 | 69 | 1010.1 |
| 20260508064105 | 55 | 195 | 7.8 | 15.6 | 0.00 | 0.00 | 0.00 | 68 | 1010.2 |
| 20260508063606 | 54 | 205 | 7.0 | 13.0 | 0.00 | 0.00 | 0.00 | 69 | 1010.1 |
| 20260508063105 | 54 | 207 | 5.2 | 10.4 | 0.00 | 0.00 | 0.00 | 69 | 1010.0 |
| 20260508062604 | 54 | 214 | 5.2 | 11.3 | 0.00 | 0.00 | 0.00 | 69 | 1009.8 |
| 20260508062105 | 54 | 204 | 4.3 | 11.3 | 0.00 | 0.00 | 0.00 | 68 | 1009.9 |
| 20260508061605 | 54 | 210 | 2.6 | 5.2 | 0.00 | 0.00 | 0.00 | 68 | 1010.1 |
| 20260508061105 | 54 | 204 | 1.7 | 4.3 | 0.00 | 0.00 | 0.00 | 68 | 1010.0 |
| 20260508060105 | 53 | 72 | 4.3 | 6.1 | 0.00 | 0.00 | 0.00 | 69 | 1009.8 |
| 20260508055105 | 53 | 141 | 4.3 | 7.0 | 0.00 | 0.00 | 0.00 | 69 | 1009.6 |
| 20260508054605 | 53 | 121 | 2.6 | 7.0 | 0.00 | 0.00 | 0.00 | 70 | 1009.3 |
| 20260508054104 | 53 | 82 | 6.1 | 13.9 | 0.00 | 0.00 | 0.00 | 70 | 1009.3 |
| 20260508053605 | 53 | 108 | 6.1 | 15.6 | 0.00 | 0.00 | 0.00 | 69 | 1009.1 |
| 20260508053104 | 53 | 134 | 6.1 | 18.2 | 0.00 | 0.00 | 0.00 | 68 | 1009.2 |
| 20260508052106 | 53 | 170 | 4.3 | 11.3 | 0.00 | 0.00 | 0.00 | 68 | 1008.9 |
| 20260508051605 | 53 | 174 | 7.0 | 13.0 | 0.00 | 0.00 | 0.00 | 67 | 1009.1 |
| 20260508051104 | 53 | 177 | 4.3 | 6.1 | 0.00 | 0.00 | 0.00 | 69 | 1009.5 |
| 20260508050105 | 52 | 83 | 1.7 | 7.8 | 0.00 | 0.00 | 0.00 | 71 | 1009.9 |
| 20260508045604 | 53 | 205 | 4.3 | 8.7 | 0.00 | 0.00 | 0.00 | 71 | 1010.0 |
| 20260508044605 | 53 | 220 | 2.6 | 5.2 | 0.00 | 0.00 | 0.00 | 72 | 1009.7 |
| 20260508044105 | 53 | 283 | 1.7 | 5.2 | 0.00 | 0.00 | 0.00 | 72 | 1009.8 |
| 20260508043605 | 53 | 240 | 1.7 | 5.2 | 0.00 | 0.00 | 0.00 | 73 | 1009.6 |
| 20260508043104 | 53 | 166 | 2.6 | 6.1 | 0.00 | 0.00 | 0.00 | 73 | 1009.5 |
| 20260508042605 | 53 | 172 | 2.6 | 6.1 | 0.00 | 0.00 | 0.00 | 73 | 1009.5 |
| 20260508041604 | 53 | 172 | 3.5 | 7.8 | 0.00 | 0.00 | 0.00 | 74 | 1010.0 |
| 20260508041105 | 53 | 197 | 4.3 | 10.4 | 0.00 | 0.00 | 0.00 | 73 | 1010.1 |
| 20260508040605 | 53 | 194 | 5.2 | 7.8 | 0.00 | 0.00 | 0.00 | 74 | 1010.1 |
| 20260508040105 | 53 | 198 | 4.3 | 11.3 | 0.00 | 0.00 | 0.00 | 74 | 1010.1 |
| 20260508035104 | 53 | 207 | 4.3 | 7.8 | 0.00 | 0.00 | 0.00 | 74 | 1010.1 |
| 20260508034605 | 53 | 206 | 4.3 | 8.7 | 0.00 | 0.00 | 0.00 | 74 | 1010.1 |
| 20260508034105 | 53 | 202 | 5.2 | 8.7 | 0.00 | 0.00 | 0.00 | 74 | 1010.1 |
| 20260508033604 | 53 | 189 | 5.2 | 11.3 | 0.00 | 0.00 | 0.00 | 74 | 1010.1 |
| 20260508032604 | 53 | 200 | 6.1 | 8.7 | 0.00 | 0.00 | 0.00 | 74 | 1010.2 |
| 20260508032104 | 53 | 188 | 4.3 | 10.4 | 0.00 | 0.00 | 0.00 | 74 | 1009.9 |
| 20260508031605 | 53 | 196 | 5.2 | 11.3 | 0.00 | 0.00 | 0.00 | 73 | 1010.2 |
| 20260508031104 | 53 | 197 | 6.1 | 11.3 | 0.00 | 0.00 | 0.00 | 73 | 1010.1 |
| 20260508030605 | 53 | 192 | 6.1 | 11.3 | 0.00 | 0.00 | 0.00 | 72 | 1010.1 |
| 20260508030104 | 53 | 196 | 7.8 | 13.0 | 0.00 | 0.00 | 0.00 | 72 | 1010.1 |
| 20260508025604 | 53 | 204 | 5.2 | 13.0 | 0.00 | 0.00 | 0.00 | 72 | 1010.0 |
| 20260508025104 | 54 | 194 | 7.8 | 13.9 | 0.00 | 0.00 | 0.00 | 71 | 1010.0 |
| 20260508024605 | 54 | 202 | 6.1 | 10.4 | 0.00 | 0.00 | 0.00 | 70 | 1009.9 |
| 20260508024104 | 53 | 197 | 4.3 | 8.7 | 0.00 | 0.00 | 0.00 | 68 | 1009.9 |
| 20260508023106 | 54 | 181 | 4.3 | 11.3 | 0.00 | 0.00 | 0.00 | 66 | 1009.9 |
| 20260508022605 | 53 | 151 | 1.7 | 4.3 | 0.00 | 0.00 | 0.00 | 66 | 1009.7 |
| 20260508022105 | 54 | 205 | 0.9 | 4.3 | 0.00 | 0.00 | 0.00 | 65 | 1009.7 |
| 20260508021605 | 54 | 170 | 1.7 | 4.3 | 0.00 | 0.00 | 0.00 | 65 | 1009.9 |
| 20260508020606 | 54 | 201 | 4.3 | 6.1 | 0.00 | 0.00 | 0.00 | 65 | 1009.9 |
| 20260508020106 | 54 | 177 | 3.5 | 6.1 | 0.00 | 0.00 | 0.00 | 65 | 1009.5 |
| 20260508015104 | 54 | 223 | 2.6 | 7.8 | 0.00 | 0.00 | 0.00 | 64 | 1009.6 |
| 20260508014604 | 54 | 192 | 1.7 | 6.1 | 0.00 | 0.00 | 0.00 | 62 | 1009.4 |
| 20260508014105 | 54 | 16 | 2.6 | 7.0 | 0.00 | 0.00 | 0.00 | 62 | 1009.4 |
| 20260508013604 | 55 | 107 | 2.6 | 5.2 | 0.00 | 0.00 | 0.00 | 62 | 1009.3 |
| 20260508013104 | 55 | 109 | 2.6 | 6.1 | 0.00 | 0.00 | 0.00 | 62 | 1009.7 |
| 20260508012606 | 55 | 137 | 2.6 | 7.8 | 0.00 | 0.00 | 0.00 | 62 | 1009.7 |
| 20260508012105 | 55 | 193 | 2.6 | 10.4 | 0.00 | 0.00 | 0.00 | 61 | 1009.5 |
| 20260508011604 | 55 | 123 | 2.6 | 7.8 | 0.00 | 0.00 | 0.00 | 61 | 1009.5 |
| 20260508011104 | 54 | 107 | 2.6 | 7.8 | 0.00 | 0.00 | 0.00 | 62 | 1009.5 |
| 20260508010604 | 54 | 115 | 2.6 | 7.8 | 0.00 | 0.00 | 0.00 | 63 | 1009.7 |
| 20260508010105 | 54 | 131 | 3.5 | 10.4 | 0.00 | 0.00 | 0.00 | 63 | 1009.7 |
| 20260508005604 | 54 | 200 | 2.6 | 7.8 | 0.00 | 0.00 | 0.00 | 62 | 1009.8 |
| 20260508005106 | 54 | 110 | 4.3 | 7.0 | 0.00 | 0.00 | 0.00 | 61 | 1009.9 |
| 20260508004104 | 55 | 200 | 2.6 | 7.8 | 0.00 | 0.00 | 0.00 | 61 | 1010.0 |
| 20260508003104 | 55 | 116 | 6.1 | 11.3 | 0.00 | 0.00 | 0.00 | 60 | 1010.1 |
| 20260508002604 | 55 | 83 | 3.5 | 7.0 | 0.00 | 0.00 | 0.00 | 60 | 1010.0 |
| 20260508002104 | 55 | 112 | 4.3 | 7.8 | 0.00 | 0.00 | 0.00 | 61 | 1010.3 |
| 20260508001605 | 55 | 175 | 2.6 | 8.7 | 0.00 | 0.00 | 0.00 | 62 | 1010.4 |
| 20260508001105 | 55 | 193 | 2.6 | 6.1 | 0.00 | 0.00 | 0.00 | 63 | 1010.5 |
| 20260508000604 | 55 | 215 | 2.6 | 5.2 | 0.00 | 0.00 | 0.00 | 63 | 1010.4 |
| 20260508000105 | 55 | 146 | 1.7 | 4.3 | 0.00 | 0.00 | 0.00 | 63 | 1010.3 |
| 20260507235106 | 55 | 7 | 0.9 | 2.6 | 0.00 | 0.00 | 0.00 | 65 | 1010.8 |
| 20260507233604 | 56 | 214 | 2.6 | 4.3 | 0.00 | 0.00 | 0.00 | 63 | 1010.8 |
| 20260507232605 | 56 | 74 | 4.3 | 4.3 | 0.00 | 0.00 | 0.00 | 63 | 1010.8 |
| 20260507231604 | 56 | 67 | 5.2 | 5.2 | 0.00 | 0.00 | 0.00 | 63 | 1010.9 |
| 20260507230104 | 56 | 132 | 2.6 | 4.3 | 0.00 | 0.00 | 0.00 | 63 | 1011.1 |
| 20260507225602 | 56 | 211 | 1.7 | 2.6 | 0.00 | 0.00 | 0.00 | 62 | 1011.0 |